Richland, WA

11:37 AM PST on January 23, 2017 (GMT -0800)
Hanford

Weather History for KHMS - September, 2012

Change the Weather History Date:

Thursday, September 6, 2012

  Actual Average Record
Temperature  
Mean Temperature 69 °F -  
Max Temperature 83 °F 81 °F 100 °F (2006)
Min Temperature 56 °F 53 °F 44 °F (1996)
Cooling Degree Days 4    
Growing Degree Days 19 (Base 50)    
Moisture  
Dew Point 44 °F    
Average Humidity 41    
Maximum Humidity 64    
Minimum Humidity 24    
Precipitation  
Precipitation 0.00 in - - ()
Sea Level Pressure  
Sea Level Pressure 30.03 in    
Wind  
Wind Speed 7 mph (North)    
Max Wind Speed 12 mph    
Max Gust Speed -    
Visibility 15 miles    
Events      
Averages and records for this station are not official NWS values.
T = Trace of Precipitation, MM = Missing Value Source: NWS Daily Summary

Daily Weather History Graph

Daily Weather History Graph

Search for Another Location

Airport or City:

Trip Planner

Search our weather history database for the weather conditions in past years. The results will help you decide how hot, cold, wet, or windy it might be!

Date:

Astronomy

Sep. 06, 2012 Rise Set
Actual Time 6:25 AM PDT 7:26 PM PDT
Civil Twilight 5:54 AM PDT 7:57 PM PDT
Nautical Twilight 5:17 AM PDT 8:34 PM PDT
Astronomical Twilight 4:38 AM PDT 9:13 PM PDT
Moon 10:15 PM PDT (9/6) 12:54 PM PDT (9/6)
Length of Visible Light 14h 02m
Length of Day
13h 01m
Waning Gibbous, 66% of the Moon is Illuminated
Sep 6
Waning Gibbous
Sep 8
Last Quarter
Sep 15
New
Sep 22
First Quarter
Sep 29
Full

Hourly Weather History & Observations

Time (PDT) Temp. Dew Point Humidity Pressure Visibility Wind Dir Wind Speed Gust Speed Precip Events Conditions
12:50 AM 66.7 °F 47.1 °F 49% 29.94 in 12.0 mi NW 6.9 mph - N/A   Clear
1:50 AM 64.8 °F 48.0 °F 55% 29.96 in 12.0 mi NNE 5.8 mph - N/A   Clear
2:50 AM 62.2 °F 46.9 °F 57% 29.98 in 15.0 mi NE 3.5 mph - N/A   Clear
3:50 AM 59.0 °F 45.5 °F 61% 29.99 in 15.0 mi WNW 4.6 mph - N/A   Clear
4:50 AM 56.7 °F 44.6 °F 64% 30.00 in 15.0 mi WNW 4.6 mph - N/A   Clear
5:50 AM 58.5 °F 43.7 °F 58% 30.02 in 15.0 mi North 8.1 mph - N/A   Clear
6:50 AM 57.7 °F 43.5 °F 59% 30.04 in 15.0 mi NE 4.6 mph - N/A   Clear
7:50 AM 65.1 °F 43.9 °F 46% 30.06 in 15.0 mi North 5.8 mph - N/A   Clear
8:50 AM 67.8 °F 43.9 °F 42% 30.08 in 15.0 mi North 6.9 mph - N/A   Clear
9:50 AM 71.2 °F 44.2 °F 38% 30.09 in 15.0 mi NNE 6.9 mph - N/A   Clear
10:50 AM 73.6 °F 43.2 °F 34% 30.07 in 15.0 mi North 10.4 mph - N/A   Clear
11:50 AM 75.4 °F 43.0 °F 31% 30.07 in 15.0 mi North 11.5 mph - N/A   Clear
12:50 PM 77.0 °F 43.2 °F 30% 30.07 in 15.0 mi North 10.4 mph - N/A   Clear
1:50 PM 81.0 °F 43.3 °F 26% 30.06 in 15.0 mi North 9.2 mph - N/A   Clear
2:50 PM 81.7 °F 43.5 °F 26% 30.05 in 15.0 mi NNE 8.1 mph - N/A   Clear
3:50 PM 82.2 °F 43.2 °F 25% 30.05 in 15.0 mi North 8.1 mph - N/A   Clear
4:50 PM 82.8 °F 42.6 °F 24% 30.01 in 15.0 mi NE 8.1 mph - N/A   Clear
5:50 PM 82.4 °F 41.7 °F 24% 30.01 in 15.0 mi North 10.4 mph - N/A   Clear
6:50 PM 80.2 °F 42.3 °F 26% 30.01 in 15.0 mi ENE 5.8 mph - N/A   Clear
9:50 PM 67.3 °F 40.5 °F 38% 30.01 in 15.0 mi West 8.1 mph - N/A   Clear
10:50 PM 68.0 °F 41.0 °F 37% 30.06 in 15.0 mi WSW 8.1 mph - N/A   Clear
11:50 PM 63.1 °F 40.5 °F 43% 30.07 in 15.0 mi NNW 5.8 mph - N/A   Clear